Time,TemperatureF,DewpointF,PressureIn,WindDirection,WindDirectionDegrees,WindSpeedMPH,WindSpeedGustMPH,Humidity,HourlyPrecipIn,Conditions,Clouds,dailyrainin,SoftwareType,DateUTC
2013-06-17 00:01:00,83.3,73.7,29.88,ESE,119,2.0,5.0,73,0.00,,,0.00,WeatherCatV1.13B119,2013-06-17 05:01:00,
2013-06-17 00:06:00,83.2,73.6,29.88,SSE,168,5.0,5.0,73,0.00,,,0.00,WeatherCatV1.13B119,2013-06-17 05:06:00,
2013-06-17 00:11:00,83.2,73.6,29.88,SSE,168,5.0,5.0,73,0.00,,,0.00,WeatherCatV1.13B119,2013-06-17 05:11:00,
2013-06-17 00:16:00,82.8,73.6,29.88,SSE,161,3.0,3.0,74,0.00,,,0.00,WeatherCatV1.13B119,2013-06-17 05:16:00,
2013-06-17 00:21:00,82.6,73.4,29.88,East,85,4.0,6.0,74,0.00,,,0.00,WeatherCatV1.13B119,2013-06-17 05:21:00,
2013-06-17 00:26:00,82.4,73.3,29.88,SE,131,6.0,10.0,74,0.00,,,0.00,WeatherCatV1.13B119,2013-06-17 05:26:00,
2013-06-17 00:31:00,82.3,73.2,29.88,SE,143,2.0,4.0,74,0.00,,,0.00,WeatherCatV1.13B119,2013-06-17 05:31:00,
2013-06-17 00:36:00,82.2,73.1,29.89,SE,142,2.0,5.0,74,0.00,,,0.00,WeatherCatV1.13B119,2013-06-17 05:36:00,
2013-06-17 00:41:00,82.0,73.3,29.89,SW,214,1.0,2.0,75,0.00,,,0.00,WeatherCatV1.13B119,2013-06-17 05:41:00,
2013-06-17 00:46:00,81.8,73.5,29.89,SSE,165,1.0,5.0,76,0.00,,,0.00,WeatherCatV1.13B119,2013-06-17 05:46:00,
2013-06-17 00:51:00,81.7,73.4,29.89,ESE,121,0.0,4.0,76,0.00,,,0.00,WeatherCatV1.13B119,2013-06-17 05:51:00,
2013-06-17 00:56:00,81.5,73.6,29.89,SSE,160,1.0,2.0,77,0.00,,,0.00,WeatherCatV1.13B119,2013-06-17 05:56:00,
2013-06-17 01:01:00,81.4,73.5,29.89,ESE,117,1.0,3.0,77,0.00,,,0.00,WeatherCatV1.13B119,2013-06-17 06:01:00,
2013-06-17 01:06:00,81.2,73.3,29.89,SE,145,3.0,3.0,77,0.00,,,0.00,WeatherCatV1.13B119,2013-06-17 06:06:00,
2013-06-17 01:11:00,81.0,73.1,29.89,SE,133,2.0,7.0,77,0.00,,,0.00,WeatherCatV1.13B119,2013-06-17 06:11:00,
2013-06-17 01:16:00,80.9,73.4,29.89,SE,146,2.0,3.0,78,0.00,,,0.00,WeatherCatV1.13B119,2013-06-17 06:16:00,
2013-06-17 01:21:00,80.8,73.3,29.89,ESE,105,3.0,4.0,78,0.00,,,0.00,WeatherCatV1.13B119,2013-06-17 06:21:00,
2013-06-17 01:26:00,80.6,73.1,29.89,SE,145,1.0,4.0,78,0.00,,,0.00,WeatherCatV1.13B119,2013-06-17 06:26:00,
2013-06-17 01:31:00,80.5,73.0,29.89,SE,136,3.0,5.0,78,0.00,,,0.00,WeatherCatV1.13B119,2013-06-17 06:31:00,
2013-06-17 01:36:00,80.3,72.8,29.89,SE,145,2.0,3.0,78,0.00,,,0.00,WeatherCatV1.13B119,2013-06-17 06:36:00,
2013-06-17 01:38:00,80.3,73.2,29.89,SSE,148,1.0,5.0,79,0.00,,,0.00,WeatherCatV1.13B119,2013-06-17 06:38:00,
2013-06-17 01:43:00,80.2,72.7,29.89,ESE,122,0.0,2.0,78,0.00,,,0.00,WeatherCatV1.13B119,2013-06-17 06:43:00,
2013-06-17 01:48:00,80.0,72.5,29.89,SE,137,2.0,3.0,78,0.00,,,0.00,WeatherCatV1.13B119,2013-06-17 06:48:00,
2013-06-17 01:53:00,79.9,72.4,29.89,South,172,3.0,5.0,78,0.00,,,0.00,WeatherCatV1.13B119,2013-06-17 06:53:00,
2013-06-17 01:58:00,79.8,72.3,29.89,SE,137,3.0,4.0,78,0.00,,,0.00,WeatherCatV1.13B119,2013-06-17 06:58:00,
2013-06-17 02:03:00,79.8,72.3,29.89,SW,225,2.0,3.0,78,0.00,,,0.00,WeatherCatV1.13B119,2013-06-17 07:03:00,
2013-06-17 02:08:00,79.6,72.1,29.89,ESE,114,3.0,3.0,78,0.00,,,0.00,WeatherCatV1.13B119,2013-06-17 07:08:00,
2013-06-17 02:13:00,79.5,72.4,29.89,SE,140,2.0,3.0,79,0.00,,,0.00,WeatherCatV1.13B119,2013-06-17 07:13:00,
2013-06-17 02:18:00,79.4,72.3,29.89,SE,126,2.0,4.0,79,0.00,,,0.00,WeatherCatV1.13B119,2013-06-17 07:18:00,
2013-06-17 02:23:00,79.3,72.2,29.89,SE,127,0.0,3.0,79,0.00,,,0.00,WeatherCatV1.13B119,2013-06-17 07:23:00,
2013-06-17 02:28:00,79.2,72.5,29.89,SE,132,1.0,3.0,80,0.00,,,0.00,WeatherCatV1.13B119,2013-06-17 07:28:00,
2013-06-17 02:33:00,79.1,72.4,29.89,SE,142,1.0,3.0,80,0.00,,,0.00,WeatherCatV1.13B119,2013-06-17 07:33:00,
2013-06-17 02:38:00,79.0,72.7,29.89,SSE,158,0.0,5.0,81,0.00,,,0.00,WeatherCatV1.13B119,2013-06-17 07:38:00,
2013-06-17 02:43:00,78.9,72.6,29.89,SE,125,1.0,3.0,81,0.00,,,0.00,WeatherCatV1.13B119,2013-06-17 07:43:00,
2013-06-17 02:48:00,78.8,72.8,29.88,SSE,167,3.0,3.0,82,0.00,,,0.00,WeatherCatV1.13B119,2013-06-17 07:48:00,
2013-06-17 02:53:00,78.7,72.7,29.88,SE,138,1.0,3.0,82,0.00,,,0.00,WeatherCatV1.13B119,2013-06-17 07:53:00,
2013-06-17 02:58:00,78.6,72.6,29.88,ESE,119,2.0,3.0,82,0.00,,,0.00,WeatherCatV1.13B119,2013-06-17 07:58:00,
2013-06-17 03:03:00,78.5,72.5,29.88,East,98,1.0,4.0,82,0.00,,,0.00,WeatherCatV1.13B119,2013-06-17 08:03:00,
2013-06-17 03:08:00,78.4,72.4,29.88,SSE,155,3.0,4.0,82,0.00,,,0.00,WeatherCatV1.13B119,2013-06-17 08:08:00,
2013-06-17 03:13:00,78.3,72.7,29.88,WNW,300,0.0,3.0,83,0.00,,,0.00,WeatherCatV1.13B119,2013-06-17 08:13:00,
2013-06-17 03:18:00,78.2,72.6,29.87,ESE,105,3.0,6.0,83,0.00,,,0.00,WeatherCatV1.13B119,2013-06-17 08:18:00,
2013-06-17 03:23:00,78.2,72.6,29.87,SE,124,1.0,4.0,83,0.00,,,0.00,WeatherCatV1.13B119,2013-06-17 08:23:00,
2013-06-17 03:28:00,78.1,72.5,29.87,SE,128,2.0,3.0,83,0.00,,,0.00,WeatherCatV1.13B119,2013-06-17 08:28:00,
2013-06-17 03:33:00,78.1,72.5,29.86,ESE,119,1.0,4.0,83,0.00,,,0.00,WeatherCatV1.13B119,2013-06-17 08:33:00,
2013-06-17 03:38:00,78.0,72.8,29.86,ESE,110,3.0,5.0,84,0.00,,,0.00,WeatherCatV1.13B119,2013-06-17 08:38:00,
2013-06-17 03:43:00,77.9,72.3,29.86,SE,132,1.0,4.0,83,0.00,,,0.00,WeatherCatV1.13B119,2013-06-17 08:43:00,
2013-06-17 03:48:00,77.9,72.7,29.86,SE,141,2.0,6.0,84,0.00,,,0.00,WeatherCatV1.13B119,2013-06-17 08:48:00,
2013-06-17 03:53:00,77.8,72.6,29.86,SE,136,2.0,4.0,84,0.00,,,0.00,WeatherCatV1.13B119,2013-06-17 08:53:00,
2013-06-17 03:58:00,77.7,72.5,29.86,SE,134,0.0,3.0,84,0.00,,,0.00,WeatherCatV1.13B119,2013-06-17 08:58:00,
2013-06-17 04:03:00,77.7,72.5,29.86,SE,141,3.0,5.0,84,0.00,,,0.00,WeatherCatV1.13B119,2013-06-17 09:03:00,
2013-06-17 04:08:00,77.7,72.5,29.86,SSE,163,4.0,8.0,84,0.00,,,0.00,WeatherCatV1.13B119,2013-06-17 09:08:00,
2013-06-17 04:13:00,77.6,72.4,29.86,South,174,0.0,3.0,84,0.00,,,0.00,WeatherCatV1.13B119,2013-06-17 09:13:00,
2013-06-17 04:18:00,77.6,72.4,29.86,ESE,122,2.0,3.0,84,0.00,,,0.00,WeatherCatV1.13B119,2013-06-17 09:18:00,
2013-06-17 04:23:00,77.5,72.3,29.86,ESE,119,2.0,4.0,84,0.00,,,0.00,WeatherCatV1.13B119,2013-06-17 09:23:00,
2013-06-17 04:28:00,77.4,72.2,29.87,SSE,157,0.0,3.0,84,0.00,,,0.00,WeatherCatV1.13B119,2013-06-17 09:28:00,
2013-06-17 04:33:00,77.4,72.5,29.87,South,178,0.0,2.0,85,0.00,,,0.00,WeatherCatV1.13B119,2013-06-17 09:33:00,
2013-06-17 04:38:00,77.4,72.2,29.87,ESE,115,1.0,1.0,84,0.00,,,0.00,WeatherCatV1.13B119,2013-06-17 09:38:00,
2013-06-17 04:43:00,77.4,72.2,29.87,South,179,0.0,2.0,84,0.00,,,0.00,WeatherCatV1.13B119,2013-06-17 09:43:00,
2013-06-17 04:48:00,77.4,72.2,29.87,SSE,148,0.0,2.0,84,0.00,,,0.00,WeatherCatV1.13B119,2013-06-17 09:48:00,
2013-06-17 04:53:00,77.4,72.2,29.88,ESE,117,3.0,3.0,84,0.00,,,0.00,WeatherCatV1.13B119,2013-06-17 09:53:00,
2013-06-17 04:58:00,77.5,72.3,29.88,SSW,208,0.0,0.0,84,0.00,,,0.00,WeatherCatV1.13B119,2013-06-17 09:58:00,
2013-06-17 05:03:00,77.5,72.3,29.88,East,91,2.0,3.0,84,0.00,,,0.00,WeatherCatV1.13B119,2013-06-17 10:03:00,
2013-06-17 05:08:00,77.5,72.3,29.88,SSE,148,0.0,1.0,84,0.00,,,0.00,WeatherCatV1.13B119,2013-06-17 10:08:00,
2013-06-17 05:13:00,77.5,72.3,29.88,SE,142,0.0,2.0,84,0.00,,,0.00,WeatherCatV1.13B119,2013-06-17 10:13:00,
2013-06-17 05:18:00,77.5,72.3,29.88,SSE,150,2.0,3.0,84,0.00,,,0.00,WeatherCatV1.13B119,2013-06-17 10:18:00,
2013-06-17 05:23:00,77.5,72.3,29.88,SE,136,2.0,2.0,84,0.00,,,0.00,WeatherCatV1.13B119,2013-06-17 10:23:00,
2013-06-17 05:28:00,77.4,72.2,29.88,SE,130,0.0,2.0,84,0.00,,,0.00,WeatherCatV1.13B119,2013-06-17 10:28:00,
2013-06-17 05:33:00,77.4,72.2,29.88,South,191,0.0,2.0,84,0.00,,,0.00,WeatherCatV1.13B119,2013-06-17 10:33:00,
2013-06-17 05:38:00,77.4,72.2,29.88,SSE,167,0.0,2.0,84,0.00,,,0.00,WeatherCatV1.13B119,2013-06-17 10:38:00,
2013-06-17 05:43:00,77.3,72.1,29.88,SSE,150,0.0,3.0,84,0.00,,,0.00,WeatherCatV1.13B119,2013-06-17 10:43:00,
2013-06-17 05:48:00,77.3,72.1,29.88,SW,214,0.0,1.0,84,0.00,,,0.00,WeatherCatV1.13B119,2013-06-17 10:48:00,
2013-06-17 05:53:00,77.2,72.0,29.88,South,184,0.0,1.0,84,0.00,,,0.00,WeatherCatV1.13B119,2013-06-17 10:53:00,
2013-06-17 05:58:00,77.1,71.9,29.89,SW,225,0.0,3.0,84,0.00,,,0.00,WeatherCatV1.13B119,2013-06-17 10:58:00,
2013-06-17 06:03:00,77.1,71.9,29.89,SE,139,2.0,2.0,84,0.00,,,0.00,WeatherCatV1.13B119,2013-06-17 11:03:00,
2013-06-17 06:08:00,77.0,71.8,29.89,SSE,159,0.0,1.0,84,0.00,,,0.00,WeatherCatV1.13B119,2013-06-17 11:08:00,
2013-06-17 06:13:00,76.9,71.7,29.90,SW,219,0.0,0.0,84,0.00,,,0.00,WeatherCatV1.13B119,2013-06-17 11:13:00,
2013-06-17 06:18:00,76.9,71.7,29.90,SSW,206,0.0,0.0,84,0.00,,,0.00,WeatherCatV1.13B119,2013-06-17 11:18:00,
2013-06-17 06:23:00,76.8,71.6,29.90,SE,133,1.0,2.0,84,0.00,,,0.00,WeatherCatV1.13B119,2013-06-17 11:23:00,
2013-06-17 06:28:00,76.8,71.6,29.90,West,267,1.0,3.0,84,0.00,,,0.00,WeatherCatV1.13B119,2013-06-17 11:28:00,
2013-06-17 06:33:00,76.8,71.6,29.90,SSW,203,1.0,1.0,84,0.00,,,0.00,WeatherCatV1.13B119,2013-06-17 11:33:00,
2013-06-17 06:38:00,76.8,71.6,29.90,SE,141,0.0,1.0,84,0.00,,,0.00,WeatherCatV1.13B119,2013-06-17 11:38:00,
2013-06-17 06:43:00,76.8,71.6,29.90,SSE,153,1.0,2.0,84,0.00,,,0.00,WeatherCatV1.13B119,2013-06-17 11:43:00,
2013-06-17 06:48:00,76.8,71.6,29.90,SE,134,0.0,0.0,84,0.00,,,0.00,WeatherCatV1.13B119,2013-06-17 11:48:00,
2013-06-17 06:53:00,76.7,71.8,29.90,SSE,162,0.0,0.0,85,0.00,,,0.00,WeatherCatV1.13B119,2013-06-17 11:53:00,
2013-06-17 06:58:00,76.6,71.7,29.90,SSE,162,0.0,0.0,85,0.00,,,0.00,WeatherCatV1.13B119,2013-06-17 11:58:00,
2013-06-17 07:03:00,76.4,71.5,29.90,SSE,163,0.0,0.0,85,0.00,,,0.00,WeatherCatV1.13B119,2013-06-17 12:03:00,
2013-06-17 07:08:00,76.3,71.4,29.90,SSE,163,0.0,0.0,85,0.00,,,0.00,WeatherCatV1.13B119,2013-06-17 12:08:00,
2013-06-17 07:13:00,76.2,71.7,29.90,SSE,163,0.0,0.0,86,0.00,,,0.00,WeatherCatV1.13B119,2013-06-17 12:13:00,
2013-06-17 07:18:00,76.2,71.7,29.90,SSE,162,0.0,0.0,86,0.00,,,0.00,WeatherCatV1.13B119,2013-06-17 12:18:00,
2013-06-17 07:23:00,76.2,71.7,29.90,SSE,163,0.0,0.0,86,0.00,,,0.00,WeatherCatV1.13B119,2013-06-17 12:23:00,
2013-06-17 07:28:00,76.3,71.8,29.90,SSE,162,0.0,0.0,86,0.00,,,0.00,WeatherCatV1.13B119,2013-06-17 12:28:00,
2013-06-17 07:33:00,76.5,72.0,29.91,SSE,162,0.0,0.0,86,0.00,,,0.00,WeatherCatV1.13B119,2013-06-17 12:33:00,
2013-06-17 07:38:00,76.6,71.7,29.91,SSE,162,0.0,0.0,85,0.00,,,0.00,WeatherCatV1.13B119,2013-06-17 12:38:00,
2013-06-17 07:43:00,76.8,71.6,29.91,SSE,162,0.0,0.0,84,0.00,,,0.00,WeatherCatV1.13B119,2013-06-17 12:43:00,
2013-06-17 07:48:00,77.1,71.9,29.90,SE,146,0.0,0.0,84,0.00,,,0.00,WeatherCatV1.13B119,2013-06-17 12:48:00,
2013-06-17 07:53:00,77.4,71.8,29.91,SE,146,0.0,0.0,83,0.00,,,0.00,WeatherCatV1.13B119,2013-06-17 12:53:00,
2013-06-17 07:58:00,77.6,72.0,29.91,SE,146,0.0,0.0,83,0.00,,,0.00,WeatherCatV1.13B119,2013-06-17 12:58:00,
2013-06-17 08:03:00,77.8,72.2,29.91,SW,229,0.0,0.0,83,0.00,,,0.00,WeatherCatV1.13B119,2013-06-17 13:03:00,
2013-06-17 08:08:00,78.0,72.0,29.91,SSW,212,0.0,0.0,82,0.00,,,0.00,WeatherCatV1.13B119,2013-06-17 13:08:00,
2013-06-17 08:13:00,78.4,72.4,29.91,SSW,210,0.0,0.0,82,0.00,,,0.00,WeatherCatV1.13B119,2013-06-17 13:13:00,
2013-06-17 08:18:00,78.7,72.0,29.91,SSW,208,0.0,0.0,80,0.00,,,0.00,WeatherCatV1.13B119,2013-06-17 13:18:00,
2013-06-17 08:23:00,78.8,72.5,29.91,South,181,0.0,0.0,81,0.00,,,0.00,WeatherCatV1.13B119,2013-06-17 13:23:00,
2013-06-17 08:28:00,79.1,72.4,29.91,SSE,148,0.0,2.0,80,0.00,,,0.00,WeatherCatV1.13B119,2013-06-17 13:28:00,
2013-06-17 08:33:00,79.7,73.0,29.91,SE,143,1.0,1.0,80,0.00,,,0.00,WeatherCatV1.13B119,2013-06-17 13:33:00,
2013-06-17 08:38:00,80.1,72.6,29.92,SW,230,1.0,4.0,78,0.00,,,0.00,WeatherCatV1.13B119,2013-06-17 13:38:00,
2013-06-17 08:43:00,80.2,73.1,29.92,SSW,205,0.0,1.0,79,0.00,,,0.00,WeatherCatV1.13B119,2013-06-17 13:43:00,
2013-06-17 08:48:00,80.4,72.5,29.92,WSW,250,3.0,3.0,77,0.00,,,0.00,WeatherCatV1.13B119,2013-06-17 13:48:00,
2013-06-17 08:53:00,80.5,72.6,29.93,SSW,210,0.0,2.0,77,0.00,,,0.00,WeatherCatV1.13B119,2013-06-17 13:53:00,
2013-06-17 08:58:00,80.5,72.6,29.93,West,271,1.0,2.0,77,0.00,,,0.00,WeatherCatV1.13B119,2013-06-17 13:58:00,
2013-06-17 09:03:00,80.6,72.7,29.93,SW,218,0.0,4.0,77,0.00,,,0.00,WeatherCatV1.13B119,2013-06-17 14:03:00,
2013-06-17 09:08:00,81.0,72.7,29.93,South,173,0.0,1.0,76,0.00,,,0.00,WeatherCatV1.13B119,2013-06-17 14:08:00,
2013-06-17 09:13:00,82.0,72.9,29.93,SSW,199,2.0,2.0,74,0.00,,,0.00,WeatherCatV1.13B119,2013-06-17 14:13:00,
2013-06-17 09:18:00,82.6,73.0,29.94,SSW,210,4.0,4.0,73,0.00,,,0.00,WeatherCatV1.13B119,2013-06-17 14:18:00,
2013-06-17 09:23:00,83.2,73.2,29.94,SW,233,1.0,2.0,72,0.00,,,0.00,WeatherCatV1.13B119,2013-06-17 14:23:00,
2013-06-17 09:28:00,83.5,73.1,29.94,SW,217,0.0,3.0,71,0.00,,,0.00,WeatherCatV1.13B119,2013-06-17 14:28:00,
2013-06-17 09:33:00,83.7,72.4,29.95,SW,217,2.0,4.0,69,0.00,,,0.00,WeatherCatV1.13B119,2013-06-17 14:33:00,
2013-06-17 09:38:00,83.5,72.2,29.95,WNW,284,2.0,3.0,69,0.00,,,0.00,WeatherCatV1.13B119,2013-06-17 14:38:00,
2013-06-17 09:43:00,83.5,72.7,29.95,SW,218,0.0,2.0,70,0.00,,,0.00,WeatherCatV1.13B119,2013-06-17 14:43:00,
2013-06-17 09:48:00,83.7,72.4,29.95,WNW,286,2.0,4.0,69,0.00,,,0.00,WeatherCatV1.13B119,2013-06-17 14:48:00,
2013-06-17 09:53:00,83.6,72.3,29.95,SW,215,1.0,2.0,69,0.00,,,0.00,WeatherCatV1.13B119,2013-06-17 14:53:00,
2013-06-17 09:58:00,84.2,72.5,29.95,SE,136,3.0,4.0,68,0.00,,,0.00,WeatherCatV1.13B119,2013-06-17 14:58:00,
2013-06-17 10:03:00,84.5,72.3,29.94,SSE,159,2.0,2.0,67,0.00,,,0.00,WeatherCatV1.13B119,2013-06-17 15:03:00,
2013-06-17 10:08:00,84.8,72.6,29.94,WSW,238,0.0,2.0,67,0.00,,,0.00,WeatherCatV1.13B119,2013-06-17 15:08:00,
2013-06-17 10:13:00,84.9,72.2,29.94,SW,231,0.0,5.0,66,0.00,,,0.00,WeatherCatV1.13B119,2013-06-17 15:13:00,
2013-06-17 10:18:00,85.5,73.3,29.94,SSE,163,1.0,3.0,67,0.00,,,0.00,WeatherCatV1.13B119,2013-06-17 15:18:00,
2013-06-17 10:23:00,86.3,72.2,29.93,SSE,166,2.0,3.0,63,0.00,,,0.00,WeatherCatV1.13B119,2013-06-17 15:23:00,
2013-06-17 10:28:00,86.9,72.3,29.93,SE,131,0.0,3.0,62,0.00,,,0.00,WeatherCatV1.13B119,2013-06-17 15:28:00,
2013-06-17 10:33:00,87.2,73.0,29.94,WSW,244,0.0,2.0,63,0.00,,,0.00,WeatherCatV1.13B119,2013-06-17 15:33:00,
2013-06-17 10:38:00,88.1,72.9,29.94,West,266,1.0,1.0,61,0.00,,,0.00,WeatherCatV1.13B119,2013-06-17 15:38:00,
2013-06-17 10:43:00,88.8,72.1,29.94,SSW,202,3.0,3.0,58,0.00,,,0.00,WeatherCatV1.13B119,2013-06-17 15:43:00,
2013-06-17 10:48:00,88.4,71.7,29.93,South,170,0.0,5.0,58,0.00,,,0.00,WeatherCatV1.13B119,2013-06-17 15:48:00,
2013-06-17 10:53:00,88.7,72.0,29.93,ESE,105,3.0,5.0,58,0.00,,,0.00,WeatherCatV1.13B119,2013-06-17 15:53:00,
2013-06-17 10:58:00,89.2,72.5,29.93,SE,127,2.0,3.0,58,0.00,,,0.00,WeatherCatV1.13B119,2013-06-17 15:58:00,
2013-06-17 11:03:00,89.3,72.0,29.93,SW,214,2.0,7.0,57,0.00,,,0.00,WeatherCatV1.13B119,2013-06-17 16:03:00,
2013-06-17 11:08:00,89.6,71.8,29.93,WSW,242,0.0,4.0,56,0.00,,,0.00,WeatherCatV1.13B119,2013-06-17 16:08:00,
2013-06-17 11:13:00,89.9,71.5,29.93,ESE,111,3.0,6.0,55,0.00,,,0.00,WeatherCatV1.13B119,2013-06-17 16:13:00,
2013-06-17 11:18:00,90.0,72.7,29.92,SSW,201,0.0,2.0,57,0.00,,,0.00,WeatherCatV1.13B119,2013-06-17 16:18:00,
2013-06-17 11:23:00,90.8,72.4,29.92,South,182,5.0,6.0,55,0.00,,,0.00,WeatherCatV1.13B119,2013-06-17 16:23:00,
2013-06-17 11:28:00,90.2,71.8,29.92,ENE,63,1.0,4.0,55,0.00,,,0.00,WeatherCatV1.13B119,2013-06-17 16:28:00,
2013-06-17 11:33:00,90.6,71.6,29.92,South,169,5.0,7.0,54,0.00,,,0.00,WeatherCatV1.13B119,2013-06-17 16:33:00,
2013-06-17 11:38:00,90.8,71.8,29.92,WSW,247,2.0,6.0,54,0.00,,,0.00,WeatherCatV1.13B119,2013-06-17 16:38:00,
2013-06-17 11:43:00,91.6,72.0,29.91,South,182,2.0,4.0,53,0.00,,,0.00,WeatherCatV1.13B119,2013-06-17 16:43:00,
2013-06-17 11:48:00,92.1,72.5,29.91,SSE,158,2.0,3.0,53,0.00,,,0.00,WeatherCatV1.13B119,2013-06-17 16:48:00,
2013-06-17 11:53:00,92.7,71.9,29.91,SE,146,2.0,3.0,51,0.00,,,0.00,WeatherCatV1.13B119,2013-06-17 16:53:00,
2013-06-17 11:58:00,92.8,72.0,29.91,ESE,108,0.0,5.0,51,0.00,,,0.00,WeatherCatV1.13B119,2013-06-17 16:58:00,
2013-06-17 12:03:00,92.8,71.4,29.91,SSE,152,3.0,5.0,50,0.00,,,0.00,WeatherCatV1.13B119,2013-06-17 17:03:00,
2013-06-17 12:08:00,92.5,70.5,29.91,SE,139,4.0,4.0,49,0.00,,,0.00,WeatherCatV1.13B119,2013-06-17 17:08:00,
2013-06-17 12:13:00,92.8,71.4,29.91,WSW,249,5.0,7.0,50,0.00,,,0.00,WeatherCatV1.13B119,2013-06-17 17:13:00,
2013-06-17 12:18:00,92.9,70.9,29.91,ESE,122,1.0,2.0,49,0.00,,,0.00,WeatherCatV1.13B119,2013-06-17 17:18:00,
2013-06-17 12:23:00,93.6,70.3,29.91,SE,124,1.0,5.0,47,0.00,,,0.00,WeatherCatV1.13B119,2013-06-17 17:23:00,
2013-06-17 12:28:00,93.7,71.6,29.90,WSW,237,2.0,4.0,49,0.00,,,0.00,WeatherCatV1.13B119,2013-06-17 17:28:00,
2013-06-17 12:33:00,94.5,70.5,29.90,East,85,3.0,3.0,46,0.00,,,0.00,WeatherCatV1.13B119,2013-06-17 17:33:00,
2013-06-17 12:38:00,94.3,69.6,29.90,ESE,123,2.0,4.0,45,0.00,,,0.00,WeatherCatV1.13B119,2013-06-17 17:38:00,
2013-06-17 12:43:00,94.6,69.3,29.89,ESE,119,5.0,5.0,44,0.00,,,0.00,WeatherCatV1.13B119,2013-06-17 17:43:00,
2013-06-17 12:48:00,95.1,69.7,29.89,East,95,3.0,6.0,44,0.00,,,0.00,WeatherCatV1.13B119,2013-06-17 17:48:00,
2013-06-17 12:53:00,95.4,70.6,29.89,SW,235,3.0,4.0,45,0.00,,,0.00,WeatherCatV1.13B119,2013-06-17 17:53:00,
2013-06-17 12:58:00,95.4,69.3,29.89,SSW,196,2.0,4.0,43,0.00,,,0.00,WeatherCatV1.13B119,2013-06-17 17:58:00,
2013-06-17 13:03:00,95.3,69.9,29.89,SSE,157,1.0,5.0,44,0.00,,,0.00,WeatherCatV1.13B119,2013-06-17 18:03:00,
2013-06-17 13:08:00,95.8,70.3,29.89,SSE,159,1.0,3.0,44,0.00,,,0.00,WeatherCatV1.13B119,2013-06-17 18:08:00,
2013-06-17 13:13:00,96.0,69.1,29.88,SSE,167,4.0,4.0,42,0.00,,,0.00,WeatherCatV1.13B119,2013-06-17 18:13:00,
2013-06-17 13:18:00,96.4,68.8,29.88,ESE,117,3.0,7.0,41,0.00,,,0.00,WeatherCatV1.13B119,2013-06-17 18:18:00,
2013-06-17 13:23:00,96.3,70.1,29.88,SSE,149,4.0,5.0,43,0.00,,,0.00,WeatherCatV1.13B119,2013-06-17 18:23:00,
2013-06-17 13:28:00,96.6,69.7,29.87,SSE,158,2.0,6.0,42,0.00,,,0.00,WeatherCatV1.13B119,2013-06-17 18:28:00,
2013-06-17 13:33:00,97.0,69.3,29.87,SSE,158,4.0,4.0,41,0.00,,,0.00,WeatherCatV1.13B119,2013-06-17 18:33:00,
2013-06-17 13:38:00,97.3,68.9,29.87,SW,219,5.0,7.0,40,0.00,,,0.00,WeatherCatV1.13B119,2013-06-17 18:38:00,
2013-06-17 13:43:00,97.2,69.5,29.86,SW,214,7.0,7.0,41,0.00,,,0.00,WeatherCatV1.13B119,2013-06-17 18:43:00,
2013-06-17 13:48:00,96.4,68.8,29.86,SSE,148,4.0,9.0,41,0.00,,,0.00,WeatherCatV1.13B119,2013-06-17 18:48:00,
2013-06-17 13:53:00,96.8,69.9,29.86,South,184,3.0,5.0,42,0.00,,,0.00,WeatherCatV1.13B119,2013-06-17 18:53:00,
2013-06-17 13:58:00,97.0,70.0,29.85,ESE,118,2.0,4.0,42,0.00,,,0.00,WeatherCatV1.13B119,2013-06-17 18:58:00,
2013-06-17 14:03:00,97.7,69.2,29.85,South,188,1.0,10.0,40,0.00,,,0.00,WeatherCatV1.13B119,2013-06-17 19:03:00,
2013-06-17 14:08:00,96.9,68.5,29.85,WSW,246,1.0,9.0,40,0.00,,,0.00,WeatherCatV1.13B119,2013-06-17 19:08:00,
2013-06-17 14:13:00,97.1,68.7,29.85,East,86,2.0,6.0,40,0.00,,,0.00,WeatherCatV1.13B119,2013-06-17 19:13:00,
2013-06-17 14:18:00,97.9,67.1,29.85,SE,136,4.0,8.0,37,0.00,,,0.00,WeatherCatV1.13B119,2013-06-17 19:18:00,
2013-06-17 14:24:00,98.6,67.8,29.85,ESE,105,5.0,6.0,37,0.00,,,0.00,WeatherCatV1.13B119,2013-06-17 19:24:00,
2013-06-17 14:29:00,97.5,68.3,29.85,ESE,108,3.0,6.0,39,0.00,,,0.00,WeatherCatV1.13B119,2013-06-17 19:29:00,
2013-06-17 14:34:00,98.0,68.8,29.84,SE,129,3.0,5.0,39,0.00,,,0.00,WeatherCatV1.13B119,2013-06-17 19:34:00,
2013-06-17 14:39:00,98.2,68.9,29.84,SE,124,4.0,6.0,39,0.00,,,0.00,WeatherCatV1.13B119,2013-06-17 19:39:00,
2013-06-17 14:44:00,98.0,68.8,29.84,SSE,150,4.0,6.0,39,0.00,,,0.00,WeatherCatV1.13B119,2013-06-17 19:44:00,
2013-06-17 14:49:00,98.1,68.1,29.84,West,265,3.0,7.0,38,0.00,,,0.00,WeatherCatV1.13B119,2013-06-17 19:49:00,
2013-06-17 14:54:00,97.7,68.5,29.84,SSE,158,1.0,5.0,39,0.00,,,0.00,WeatherCatV1.13B119,2013-06-17 19:54:00,
2013-06-17 14:59:00,98.9,68.0,29.84,SE,141,3.0,5.0,37,0.00,,,0.00,WeatherCatV1.13B119,2013-06-17 19:59:00,
2013-06-17 15:04:00,98.2,67.4,29.84,SSW,203,1.0,5.0,37,0.00,,,0.00,WeatherCatV1.13B119,2013-06-17 20:04:00,
2013-06-17 15:09:00,99.0,68.1,29.84,ESE,118,4.0,6.0,37,0.00,,,0.00,WeatherCatV1.13B119,2013-06-17 20:09:00,
2013-06-17 15:14:00,98.9,67.2,29.83,SSW,203,2.0,3.0,36,0.00,,,0.00,WeatherCatV1.13B119,2013-06-17 20:14:00,
2013-06-17 15:19:00,99.3,67.6,29.83,SSW,210,2.0,7.0,36,0.00,,,0.00,WeatherCatV1.13B119,2013-06-17 20:19:00,
2013-06-17 15:24:00,99.5,67.7,29.83,ESE,110,6.0,7.0,36,0.00,,,0.00,WeatherCatV1.13B119,2013-06-17 20:24:00,
2013-06-17 15:29:00,99.6,67.8,29.82,SE,146,2.0,5.0,36,0.00,,,0.00,WeatherCatV1.13B119,2013-06-17 20:29:00,
2013-06-17 15:34:00,99.6,67.8,29.82,SE,139,3.0,3.0,36,0.00,,,0.00,WeatherCatV1.13B119,2013-06-17 20:34:00,
2013-06-17 15:39:00,100.1,67.4,29.82,ESE,113,5.0,5.0,35,0.00,,,0.00,WeatherCatV1.13B119,2013-06-17 20:39:00,
2013-06-17 15:44:00,99.8,67.2,29.82,WSW,249,5.0,6.0,35,0.00,,,0.00,WeatherCatV1.13B119,2013-06-17 20:44:00,
2013-06-17 15:49:00,99.1,68.2,29.82,SSE,153,0.0,4.0,37,0.00,,,0.00,WeatherCatV1.13B119,2013-06-17 20:49:00,
2013-06-17 15:54:00,99.9,67.3,29.82,SSE,147,1.0,7.0,35,0.00,,,0.00,WeatherCatV1.13B119,2013-06-17 20:54:00,
2013-06-17 15:59:00,100.3,67.6,29.81,SSE,163,3.0,6.0,35,0.00,,,0.00,WeatherCatV1.13B119,2013-06-17 20:59:00,
2013-06-17 16:04:00,100.1,66.6,29.81,SW,234,5.0,8.0,34,0.00,,,0.00,WeatherCatV1.13B119,2013-06-17 21:04:00,
2013-06-17 16:09:00,99.6,67.0,29.81,SSW,209,5.0,5.0,35,0.00,,,0.00,WeatherCatV1.13B119,2013-06-17 21:09:00,
2013-06-17 16:14:00,99.2,65.8,29.81,SE,143,2.0,8.0,34,0.00,,,0.00,WeatherCatV1.13B119,2013-06-17 21:14:00,
2013-06-17 16:19:00,99.4,66.8,29.81,SSW,198,1.0,5.0,35,0.00,,,0.00,WeatherCatV1.13B119,2013-06-17 21:19:00,
2013-06-17 16:24:00,100.1,66.6,29.81,ESE,116,2.0,5.0,34,0.00,,,0.00,WeatherCatV1.13B119,2013-06-17 21:24:00,
2013-06-17 16:29:00,99.4,66.8,29.81,SE,130,5.0,7.0,35,0.00,,,0.00,WeatherCatV1.13B119,2013-06-17 21:29:00,
2013-06-17 16:34:00,99.3,67.6,29.81,ESE,123,3.0,3.0,36,0.00,,,0.00,WeatherCatV1.13B119,2013-06-17 21:34:00,
2013-06-17 16:39:00,99.8,67.2,29.81,ESE,117,1.0,4.0,35,0.00,,,0.00,WeatherCatV1.13B119,2013-06-17 21:39:00,
2013-06-17 16:44:00,100.5,67.0,29.80,WSW,238,1.0,6.0,34,0.00,,,0.00,WeatherCatV1.13B119,2013-06-17 21:44:00,
2013-06-17 16:49:00,100.3,66.8,29.80,ESE,115,1.0,6.0,34,0.00,,,0.00,WeatherCatV1.13B119,2013-06-17 21:49:00,
2013-06-17 16:54:00,100.4,66.9,29.80,SE,124,3.0,4.0,34,0.00,,,0.00,WeatherCatV1.13B119,2013-06-17 21:54:00,
2013-06-17 16:59:00,100.4,66.9,29.80,ESE,110,3.0,5.0,34,0.00,,,0.00,WeatherCatV1.13B119,2013-06-17 21:59:00,
2013-06-17 17:04:00,99.5,66.9,29.80,ESE,122,0.0,4.0,35,0.00,,,0.00,WeatherCatV1.13B119,2013-06-17 22:04:00,
2013-06-17 17:09:00,98.5,66.9,29.80,SSW,207,2.0,6.0,36,0.00,,,0.00,WeatherCatV1.13B119,2013-06-17 22:09:00,
2013-06-17 17:14:00,99.1,68.2,29.80,SSE,165,1.0,3.0,37,0.00,,,0.00,WeatherCatV1.13B119,2013-06-17 22:14:00,
2013-06-17 17:19:00,100.0,67.4,29.80,West,276,2.0,5.0,35,0.00,,,0.00,WeatherCatV1.13B119,2013-06-17 22:19:00,
2013-06-17 17:24:00,100.0,66.5,29.79,SE,128,3.0,6.0,34,0.00,,,0.00,WeatherCatV1.13B119,2013-06-17 22:24:00,
2013-06-17 17:29:00,99.1,66.6,29.80,WSW,253,5.0,5.0,35,0.00,,,0.00,WeatherCatV1.13B119,2013-06-17 22:29:00,
2013-06-17 17:34:00,98.7,66.2,29.79,South,187,0.0,5.0,35,0.00,,,0.00,WeatherCatV1.13B119,2013-06-17 22:34:00,
2013-06-17 17:39:00,98.8,65.5,29.79,SE,139,4.0,7.0,34,0.00,,,0.00,WeatherCatV1.13B119,2013-06-17 22:39:00,
2013-06-17 17:44:00,97.9,65.5,29.79,SE,140,3.0,5.0,35,0.00,,,0.00,WeatherCatV1.13B119,2013-06-17 22:44:00,
2013-06-17 17:49:00,97.4,65.1,29.79,ESE,114,1.0,4.0,35,0.00,,,0.00,WeatherCatV1.13B119,2013-06-17 22:49:00,
2013-06-17 17:54:00,97.3,66.6,29.79,SSE,151,2.0,4.0,37,0.00,,,0.00,WeatherCatV1.13B119,2013-06-17 22:54:00,
2013-06-17 17:59:00,97.4,64.3,29.79,ESE,113,3.0,5.0,34,0.00,,,0.00,WeatherCatV1.13B119,2013-06-17 22:59:00,
2013-06-17 18:04:00,96.9,63.8,29.79,SSE,156,2.0,2.0,34,0.00,,,0.00,WeatherCatV1.13B119,2013-06-17 23:04:00,
2013-06-17 18:09:00,97.1,64.8,29.79,SE,136,2.0,4.0,35,0.00,,,0.00,WeatherCatV1.13B119,2013-06-17 23:09:00,
2013-06-17 18:14:00,97.0,64.7,29.78,SE,131,1.0,3.0,35,0.00,,,0.00,WeatherCatV1.13B119,2013-06-17 23:14:00,
2013-06-17 18:19:00,97.1,64.8,29.78,SSE,148,2.0,6.0,35,0.00,,,0.00,WeatherCatV1.13B119,2013-06-17 23:19:00,
2013-06-17 18:24:00,97.2,64.1,29.78,SE,134,2.0,3.0,34,0.00,,,0.00,WeatherCatV1.13B119,2013-06-17 23:24:00,
2013-06-17 18:29:00,97.1,66.4,29.78,ESE,111,4.0,4.0,37,0.00,,,0.00,WeatherCatV1.13B119,2013-06-17 23:29:00,
2013-06-17 18:34:00,96.9,66.3,29.78,SE,139,0.0,2.0,37,0.00,,,0.00,WeatherCatV1.13B119,2013-06-17 23:34:00,
2013-06-17 18:39:00,96.6,66.0,29.78,SE,127,1.0,4.0,37,0.00,,,0.00,WeatherCatV1.13B119,2013-06-17 23:39:00,
2013-06-17 18:44:00,96.3,64.9,29.78,WSW,256,6.0,7.0,36,0.00,,,0.00,WeatherCatV1.13B119,2013-06-17 23:44:00,
2013-06-17 18:49:00,95.9,63.8,29.78,SE,136,2.0,5.0,35,0.00,,,0.00,WeatherCatV1.13B119,2013-06-17 23:49:00,
2013-06-17 18:54:00,95.8,65.3,29.78,ESE,108,1.0,3.0,37,0.00,,,0.00,WeatherCatV1.13B119,2013-06-17 23:54:00,
2013-06-17 18:59:00,95.6,65.1,29.78,SW,230,1.0,2.0,37,0.00,,,0.00,WeatherCatV1.13B119,2013-06-17 23:59:00,
2013-06-17 19:04:00,95.2,64.8,29.78,South,172,2.0,3.0,37,0.00,,,0.00,WeatherCatV1.13B119,2013-06-18 00:04:00,
2013-06-17 19:09:00,94.7,65.1,29.78,SE,142,1.0,3.0,38,0.00,,,0.00,WeatherCatV1.13B119,2013-06-18 00:09:00,
2013-06-17 19:14:00,94.3,64.7,29.78,SSE,161,2.0,3.0,38,0.00,,,0.00,WeatherCatV1.13B119,2013-06-18 00:14:00,
2013-06-17 19:19:00,93.9,64.4,29.78,ESE,114,3.0,5.0,38,0.00,,,0.00,WeatherCatV1.13B119,2013-06-18 00:19:00,
2013-06-17 19:24:00,93.6,63.4,29.78,ESE,109,2.0,3.0,37,0.00,,,0.00,WeatherCatV1.13B119,2013-06-18 00:24:00,
2013-06-17 19:29:00,93.4,63.9,29.78,SSE,155,3.0,3.0,38,0.00,,,0.00,WeatherCatV1.13B119,2013-06-18 00:29:00,
2013-06-17 19:34:00,93.2,64.5,29.78,ESE,115,0.0,2.0,39,0.00,,,0.00,WeatherCatV1.13B119,2013-06-18 00:34:00,
2013-06-17 19:39:00,92.9,64.2,29.79,SSE,150,1.0,4.0,39,0.00,,,0.00,WeatherCatV1.13B119,2013-06-18 00:39:00,
2013-06-17 19:44:00,92.7,64.1,29.79,SE,136,2.0,3.0,39,0.00,,,0.00,WeatherCatV1.13B119,2013-06-18 00:44:00,
2013-06-17 19:49:00,92.5,63.9,29.79,SE,141,1.0,4.0,39,0.00,,,0.00,WeatherCatV1.13B119,2013-06-18 00:49:00,
2013-06-17 19:54:00,92.2,63.6,29.79,ESE,117,0.0,3.0,39,0.00,,,0.00,WeatherCatV1.13B119,2013-06-18 00:54:00,
2013-06-17 19:59:00,91.9,64.1,29.79,South,189,1.0,1.0,40,0.00,,,0.00,WeatherCatV1.13B119,2013-06-18 00:59:00,
2013-06-17 20:04:00,91.5,64.4,29.79,WSW,254,1.0,2.0,41,0.00,,,0.00,WeatherCatV1.13B119,2013-06-18 01:04:00,
2013-06-17 20:09:00,91.2,64.9,29.79,SSW,213,0.0,0.0,42,0.00,,,0.00,WeatherCatV1.13B119,2013-06-18 01:09:00,
2013-06-17 20:14:00,90.8,64.5,29.80,SSW,197,0.0,0.0,42,0.00,,,0.00,WeatherCatV1.13B119,2013-06-18 01:14:00,
2013-06-17 20:19:00,90.4,64.8,29.80,WSW,250,0.0,1.0,43,0.00,,,0.00,WeatherCatV1.13B119,2013-06-18 01:19:00,
2013-06-17 20:24:00,90.2,65.3,29.80,WSW,247,0.0,1.0,44,0.00,,,0.00,WeatherCatV1.13B119,2013-06-18 01:24:00,
2013-06-17 20:29:00,89.8,64.9,29.80,SW,229,0.0,1.0,44,0.00,,,0.00,WeatherCatV1.13B119,2013-06-18 01:29:00,
2013-06-17 20:34:00,89.4,64.6,29.80,SW,232,0.0,0.0,44,0.00,,,0.00,WeatherCatV1.13B119,2013-06-18 01:34:00,
2013-06-17 20:39:00,89.0,65.5,29.79,SW,231,0.0,0.0,46,0.00,,,0.00,WeatherCatV1.13B119,2013-06-18 01:39:00,
2013-06-17 20:44:00,88.5,65.0,29.79,SSE,155,0.0,1.0,46,0.00,,,0.00,WeatherCatV1.13B119,2013-06-18 01:44:00,
2013-06-17 20:49:00,88.1,65.3,29.79,SSE,155,0.0,0.0,47,0.00,,,0.00,WeatherCatV1.13B119,2013-06-18 01:49:00,
2013-06-17 20:54:00,87.7,64.9,29.79,East,98,1.0,1.0,47,0.00,,,0.00,WeatherCatV1.13B119,2013-06-18 01:54:00,
2013-06-17 20:59:00,87.5,65.4,29.79,SSW,203,0.0,2.0,48,0.00,,,0.00,WeatherCatV1.13B119,2013-06-18 01:59:00,
2013-06-17 21:04:00,87.4,65.3,29.79,SSW,207,0.0,1.0,48,0.00,,,0.00,WeatherCatV1.13B119,2013-06-18 02:04:00,
2013-06-17 21:09:00,87.1,65.6,29.79,SSW,207,0.0,0.0,49,0.00,,,0.00,WeatherCatV1.13B119,2013-06-18 02:09:00,
2013-06-17 21:14:00,86.8,65.9,29.79,SSW,207,0.0,0.0,50,0.00,,,0.00,WeatherCatV1.13B119,2013-06-18 02:14:00,
2013-06-17 21:19:00,86.3,66.6,29.79,WSW,245,0.0,0.0,52,0.00,,,0.00,WeatherCatV1.13B119,2013-06-18 02:19:00,
2013-06-17 21:24:00,86.0,66.8,29.79,WSW,245,0.0,0.0,53,0.00,,,0.00,WeatherCatV1.13B119,2013-06-18 02:24:00,
2013-06-17 21:29:00,85.8,66.1,29.79,SW,215,0.0,1.0,52,0.00,,,0.00,WeatherCatV1.13B119,2013-06-18 02:29:00,
2013-06-17 21:34:00,85.8,66.7,29.80,SW,228,0.0,1.0,53,0.00,,,0.00,WeatherCatV1.13B119,2013-06-18 02:34:00,
2013-06-17 21:39:00,85.6,67.0,29.80,SW,228,0.0,0.0,54,0.00,,,0.00,WeatherCatV1.13B119,2013-06-18 02:39:00,
2013-06-17 21:44:00,85.3,67.3,29.81,SW,228,0.0,0.0,55,0.00,,,0.00,WeatherCatV1.13B119,2013-06-18 02:44:00,
2013-06-17 21:49:00,85.1,67.6,29.82,SW,228,0.0,1.0,56,0.00,,,0.00,WeatherCatV1.13B119,2013-06-18 02:49:00,
2013-06-17 21:54:00,84.8,66.8,29.83,SW,228,0.0,0.0,55,0.00,,,0.00,WeatherCatV1.13B119,2013-06-18 02:54:00,
2013-06-17 21:59:00,84.4,67.0,29.83,SW,228,0.0,0.0,56,0.00,,,0.00,WeatherCatV1.13B119,2013-06-18 02:59:00,
2013-06-17 22:04:00,83.9,66.5,29.83,SW,228,0.0,0.0,56,0.00,,,0.00,WeatherCatV1.13B119,2013-06-18 03:04:00,
2013-06-17 22:09:00,83.3,66.9,29.82,SW,228,0.0,0.0,58,0.00,,,0.00,WeatherCatV1.13B119,2013-06-18 03:09:00,
2013-06-17 22:14:00,82.7,66.4,29.82,SW,228,0.0,0.0,58,0.00,,,0.00,WeatherCatV1.13B119,2013-06-18 03:14:00,
2013-06-17 22:19:00,82.5,67.2,29.82,SW,227,0.0,0.0,60,0.00,,,0.00,WeatherCatV1.13B119,2013-06-18 03:19:00,
2013-06-17 22:24:00,82.6,68.2,29.82,SW,228,0.0,0.0,62,0.00,,,0.00,WeatherCatV1.13B119,2013-06-18 03:24:00,
2013-06-17 22:29:00,82.5,67.7,29.82,SW,228,0.0,0.0,61,0.00,,,0.00,WeatherCatV1.13B119,2013-06-18 03:29:00,
2013-06-17 22:34:00,82.4,67.1,29.83,SW,228,0.0,0.0,60,0.00,,,0.00,WeatherCatV1.13B119,2013-06-18 03:34:00,
2013-06-17 22:39:00,82.7,66.9,29.83,SW,228,0.0,0.0,59,0.00,,,0.00,WeatherCatV1.13B119,2013-06-18 03:39:00,
2013-06-17 22:44:00,82.7,66.9,29.83,SW,228,0.0,0.0,59,0.00,,,0.00,WeatherCatV1.13B119,2013-06-18 03:44:00,
2013-06-17 22:49:00,82.6,66.8,29.84,SW,228,0.0,0.0,59,0.00,,,0.00,WeatherCatV1.13B119,2013-06-18 03:49:00,
2013-06-17 22:54:00,82.2,66.9,29.84,SW,228,0.0,0.0,60,0.00,,,0.00,WeatherCatV1.13B119,2013-06-18 03:54:00,
2013-06-17 22:59:00,81.7,66.9,29.85,South,187,0.0,0.0,61,0.00,,,0.00,WeatherCatV1.13B119,2013-06-18 03:59:00,
2013-06-17 23:01:00,81.6,67.3,29.85,SSW,199,0.0,0.0,62,0.00,,,0.00,WeatherCatV1.13B119,2013-06-18 04:01:00,
2013-06-17 23:06:00,81.9,69.4,29.85,SE,131,0.0,0.0,66,0.00,,,0.00,WeatherCatV1.13B119,2013-06-18 04:06:00,
2013-06-17 23:11:00,82.3,69.8,29.85,SE,132,0.0,0.0,66,0.00,,,0.00,WeatherCatV1.13B119,2013-06-18 04:11:00,
2013-06-17 23:16:00,82.3,69.3,29.85,SSE,159,0.0,0.0,65,0.00,,,0.00,WeatherCatV1.13B119,2013-06-18 04:16:00,
2013-06-17 23:21:00,83.0,70.4,29.86,SE,141,0.0,0.0,66,0.00,,,0.00,WeatherCatV1.13B119,2013-06-18 04:21:00,
2013-06-17 23:26:00,83.6,71.0,29.85,SSW,197,2.0,4.0,66,0.00,,,0.00,WeatherCatV1.13B119,2013-06-18 04:26:00,
2013-06-17 23:31:00,83.8,71.6,29.84,South,171,2.0,3.0,67,0.00,,,0.00,WeatherCatV1.13B119,2013-06-18 04:31:00,
2013-06-17 23:36:00,84.1,71.9,29.84,ESE,114,2.0,5.0,67,0.00,,,0.00,WeatherCatV1.13B119,2013-06-18 04:36:00,
2013-06-17 23:41:00,84.2,72.5,29.84,South,171,2.0,4.0,68,0.00,,,0.00,WeatherCatV1.13B119,2013-06-18 04:41:00,
2013-06-17 23:46:00,84.2,72.5,29.84,SE,125,2.0,4.0,68,0.00,,,0.00,WeatherCatV1.13B119,2013-06-18 04:46:00,
2013-06-17 23:51:00,84.1,72.8,29.84,SE,139,1.0,3.0,69,0.00,,,0.00,WeatherCatV1.13B119,2013-06-18 04:51:00,
2013-06-17 23:56:00,84.0,73.1,29.84,SW,233,2.0,5.0,70,0.00,,,0.00,WeatherCatV1.13B119,2013-06-18 04:56:00,